STARLINK-11168 [DTC]

Last updated on Sat Aug 03 2024 00:02:04 GMT+0000 (Coordinated Universal Time)

1 60183U 24124A 24215.27227479 .00060390 00000+0 36983-3 0 9994 2 60183 53.1577 163.0324 0001115 106.0336 254.0808 15.76760967 5921

Satellite not in orbit

STARLINK-11168 [DTC]